Starlink 33592

operational
NORAD ID: 62765 Int'l Des: 2025-015 Owner: SPXS Country: US Constellation: starlink
LEOCIRCULAR

关于 Starlink 33592

正在加载描述...

实时位置

正在加载3D地球...

即将过境

高度历史

Altitude vs Time

uPlot chart will show altitude changes over time

两行轨道根数

1 62765U 25015H 25306.41724582 .00027879 00000-0 94930-3 0 9999
2 62765 53.1614 193.7280 0000396 69.7505 290.3538 15.30219333 44860
Epoch: Nov 2, 2025 • Age: 30 hours

当前状态

高度 478.1 km
速度 7.63 km/s
星下点 39.23°N, 58.12°W
发射日期 Jan 21, 2025
运行时间 0.7 years
类型 internet

技术详情

分类 Payload
质量 575.00 kg
干质量 530.00 kg
总质量 575.00 kg
长度 0.30 m
直径 4.10 m
跨度 29.00 m
形状 Box + pan
制造商 SPXS
平台类型 Starlink V2MO
阶段状态 In Orbit
所有者/国家 SPXS/US

大型星座

Loading constellations...